SAT420 LPPD-LPFL

Flight info

Callsign SAT420
Flight time 1h 16m
Altitude 22000
Route SOMUL H114 VFL DCT VACKA
Aircraft DH8D/M-SDE2E3FGRY/H

Departure

Time 2026-04-23 23:32
Airport João Paulo II Airport (LPPD)

Arrival

Time 2026-04-24 00:48
Airport Flores Airport (LPFL)
Time Latitude Longitude Altitude Speed Heading
2026-04-23 23:11 37.74896 -25.71166 280 ft 0 kts 21°
2026-04-23 23:24 37.74895 -25.71167 280 ft 0 kts 21°
2026-04-23 23:24 37.74896 -25.71166 280 ft 0 kts 21°
2026-04-23 23:24 37.74889 -25.71169 279 ft 2 kts 21°
2026-04-23 23:24 37.74880 -25.71174 278 ft 2 kts 21°
2026-04-23 23:25 37.74865 -25.71181 275 ft 2 kts 21°
2026-04-23 23:25 37.74851 -25.71188 273 ft 2 kts 21°
2026-04-23 23:25 37.74838 -25.71195 271 ft 2 kts 32°
2026-04-23 23:25 37.74830 -25.71211 269 ft 2 kts 89°
2026-04-23 23:26 37.74831 -25.71223 268 ft 1 kts 111°
2026-04-23 23:26 37.74832 -25.71225 268 ft 0 kts 111°
2026-04-23 23:27 37.74832 -25.71224 268 ft 0 kts 111°
2026-04-23 23:27 37.74814 -25.71164 270 ft 18 kts 110°
2026-04-23 23:28 37.74776 -25.71043 273 ft 31 kts 117°
2026-04-23 23:28 37.74703 -25.70814 277 ft 23 kts 110°
2026-04-23 23:28 37.74641 -25.70618 274 ft 21 kts 109°
2026-04-23 23:28 37.74564 -25.70434 266 ft 29 kts 133°
2026-04-23 23:29 37.74411 -25.70287 250 ft 18 kts 138°
2026-04-23 23:29 37.74290 -25.70063 234 ft 44 kts 111°
2026-04-23 23:29 37.74164 -25.69658 214 ft 44 kts 112°
2026-04-23 23:29 37.74020 -25.69205 185 ft 61 kts 111°
2026-04-23 23:30 37.73924 -25.68896 159 ft 31 kts 111°
2026-04-23 23:30 37.73844 -25.68646 135 ft 17 kts 111°
2026-04-23 23:30 37.73745 -25.68529 123 ft 19 kts 126°
2026-04-23 23:30 37.73817 -25.68556 128 ft 23 kts 287°
2026-04-23 23:31 37.73827 -25.68593 131 ft 0 kts 290°
2026-04-23 23:32 37.73829 -25.68597 132 ft 10 kts 290°
2026-04-23 23:32 37.73974 -25.69067 174 ft 98 kts 291°
2026-04-23 23:32 37.74307 -25.70102 299 ft 144 kts 290°
2026-04-23 23:32 37.74714 -25.71240 974 ft 144 kts 289°
2026-04-23 23:33 37.74986 -25.72457 1618 ft 152 kts 280°
2026-04-23 23:33 37.75167 -25.73794 2199 ft 163 kts 278°
2026-04-23 23:33 37.75334 -25.75246 2791 ft 173 kts 277°
2026-04-23 23:33 37.75489 -25.76747 3511 ft 174 kts 277°
2026-04-23 23:34 37.75638 -25.78270 4192 ft 179 kts 277°
2026-04-23 23:34 37.75784 -25.79812 4897 ft 181 kts 277°
2026-04-23 23:34 37.75929 -25.81399 5594 ft 184 kts 277°
2026-04-23 23:34 37.76070 -25.82978 6338 ft 185 kts 276°
2026-04-23 23:35 37.76214 -25.84604 7052 ft 187 kts 277°
2026-04-23 23:35 37.76352 -25.86218 7778 ft 188 kts 276°
2026-04-23 23:35 37.76488 -25.87828 8444 ft 189 kts 276°
2026-04-23 23:35 37.76629 -25.89474 9078 ft 189 kts 277°
2026-04-23 23:36 37.76770 -25.91109 9684 ft 191 kts 277°
2026-04-23 23:36 37.76910 -25.92769 10267 ft 193 kts 277°
2026-04-23 23:36 37.77053 -25.94454 10865 ft 194 kts 277°
2026-04-23 23:36 37.77306 -25.96121 11430 ft 195 kts 294°
2026-04-23 23:37 37.78308 -25.97249 11839 ft 208 kts 334°
2026-04-23 23:37 37.79737 -25.97691 12341 ft 214 kts 343°
2026-04-23 23:37 37.81206 -25.98037 12898 ft 214 kts 343°
2026-04-23 23:37 37.82680 -25.98376 13350 ft 218 kts 343°
2026-04-23 23:38 37.84190 -25.98722 13827 ft 220 kts 343°
2026-04-23 23:38 37.85689 -25.99064 14276 ft 222 kts 343°
2026-04-23 23:38 37.87229 -25.99416 14741 ft 224 kts 343°
2026-04-23 23:38 37.88765 -25.99768 15189 ft 225 kts 343°
2026-04-23 23:39 37.90282 -26.00184 15605 ft 222 kts 333°
2026-04-23 23:39 37.91410 -26.01372 15919 ft 210 kts 293°
2026-04-23 23:39 37.91698 -26.03148 16289 ft 209 kts 274°
2026-04-23 23:39 37.91823 -26.04975 16711 ft 209 kts 277°
2026-04-23 23:40 37.92031 -26.06795 17138 ft 210 kts 279°
2026-04-23 23:40 37.92299 -26.08604 17534 ft 210 kts 281°
2026-04-23 23:40 37.92617 -26.10415 17924 ft 211 kts 283°
2026-04-23 23:40 37.92969 -26.12217 18303 ft 211 kts 283°
2026-04-23 23:41 37.93343 -26.13995 18650 ft 212 kts 284°
2026-04-23 23:41 37.93726 -26.15730 18956 ft 214 kts 285°
2026-04-23 23:46 37.93980 -26.16842 19157 ft 214 kts 285°
2026-04-23 23:47 37.94400 -26.18641 19502 ft 214 kts 286°
2026-04-23 23:47 37.94833 -26.20458 19822 ft 215 kts 287°
2026-04-23 23:47 37.95266 -26.22249 20128 ft 215 kts 287°
2026-04-23 23:47 37.95716 -26.24087 20418 ft 216 kts 287°
2026-04-23 23:48 37.96162 -26.25894 20732 ft 216 kts 287°
2026-04-23 23:48 37.96605 -26.27685 21003 ft 216 kts 288°
2026-04-23 23:48 37.97060 -26.29515 21247 ft 218 kts 288°
2026-04-23 23:48 37.97514 -26.31333 21501 ft 218 kts 288°
2026-04-23 23:49 37.98436 -26.35020 21887 ft 224 kts 288°
2026-04-23 23:49 37.98914 -26.36932 21936 ft 233 kts 288°
2026-04-23 23:49 37.99407 -26.38907 21944 ft 238 kts 288°
2026-04-23 23:50 37.99907 -26.40922 21946 ft 239 kts 288°
2026-04-23 23:50 38.00407 -26.42928 21947 ft 240 kts 288°
2026-04-23 23:50 38.00915 -26.44967 21948 ft 241 kts 288°
2026-04-23 23:50 38.01419 -26.46989 21948 ft 243 kts 288°
2026-04-23 23:51 38.01926 -26.49020 21951 ft 244 kts 288°
2026-04-23 23:51 38.02443 -26.51093 21946 ft 245 kts 288°
2026-04-23 23:51 38.02957 -26.53157 21944 ft 247 kts 288°
2026-04-23 23:51 38.03469 -26.55210 21945 ft 248 kts 288°
2026-04-23 23:52 38.03992 -26.57307 21946 ft 249 kts 288°
2026-04-23 23:52 38.04515 -26.59408 21945 ft 250 kts 288°
2026-04-23 23:52 38.05038 -26.61509 21946 ft 250 kts 288°
2026-04-23 23:52 38.05557 -26.63598 21944 ft 251 kts 288°
2026-04-23 23:53 38.06084 -26.65715 21948 ft 252 kts 287°
2026-04-23 23:53 38.06609 -26.67831 21946 ft 253 kts 287°
2026-04-23 23:53 38.07143 -26.69981 21943 ft 254 kts 287°
2026-04-23 23:53 38.07668 -26.72100 21943 ft 255 kts 287°
2026-04-23 23:54 38.08204 -26.74265 21940 ft 256 kts 288°
2026-04-23 23:54 38.08738 -26.76419 21944 ft 257 kts 288°
2026-04-23 23:54 38.09274 -26.78589 21946 ft 257 kts 287°
2026-04-23 23:54 38.09808 -26.80751 21944 ft 258 kts 287°
2026-04-23 23:55 38.10347 -26.82933 21946 ft 258 kts 287°
2026-04-23 23:55 38.10881 -26.85099 21944 ft 259 kts 287°
2026-04-23 23:55 38.11422 -26.87293 21944 ft 259 kts 287°
2026-04-23 23:55 38.11956 -26.89458 21940 ft 259 kts 287°
2026-04-23 23:56 38.12497 -26.91659 21940 ft 260 kts 287°
2026-04-23 23:56 38.13034 -26.93842 21942 ft 260 kts 287°
2026-04-23 23:56 38.13570 -26.96024 21938 ft 260 kts 287°
2026-04-23 23:56 38.14113 -26.98237 21938 ft 261 kts 287°
2026-04-23 23:57 38.14651 -27.00430 21938 ft 260 kts 287°
2026-04-23 23:57 38.15187 -27.02617 21934 ft 261 kts 287°
2026-04-23 23:57 38.15727 -27.04822 21926 ft 261 kts 287°
2026-04-23 23:57 38.16263 -27.07016 21922 ft 261 kts 287°
2026-04-23 23:58 38.16799 -27.09210 21920 ft 261 kts 287°
2026-04-23 23:58 38.17339 -27.11420 21923 ft 260 kts 287°
2026-04-23 23:58 38.17876 -27.13621 21931 ft 260 kts 287°
2026-04-23 23:58 38.18407 -27.15802 21933 ft 260 kts 287°
2026-04-23 23:59 38.18943 -27.18004 21932 ft 260 kts 287°
2026-04-23 23:59 38.19482 -27.20218 21939 ft 260 kts 287°
2026-04-23 23:59 38.20014 -27.22409 21941 ft 261 kts 287°
2026-04-23 23:59 38.20547 -27.24605 21938 ft 261 kts 287°
2026-04-24 00:00 38.21077 -27.26789 21942 ft 261 kts 287°
2026-04-24 00:00 38.21612 -27.28996 21940 ft 261 kts 287°
2026-04-24 00:00 38.22147 -27.31205 21941 ft 261 kts 287°
2026-04-24 00:00 38.22675 -27.33407 21943 ft 261 kts 286°
2026-04-24 00:01 38.23199 -27.35649 21941 ft 261 kts 286°
2026-04-24 00:01 38.23719 -27.37878 21939 ft 261 kts 286°
2026-04-24 00:01 38.24234 -27.40088 21939 ft 261 kts 286°
2026-04-24 00:01 38.24748 -27.42294 21939 ft 261 kts 286°
2026-04-24 00:02 38.25269 -27.44534 21938 ft 261 kts 286°
2026-04-24 00:02 38.25785 -27.46756 21936 ft 261 kts 286°
2026-04-24 00:02 38.26294 -27.48944 21935 ft 260 kts 286°
2026-04-24 00:02 38.26809 -27.51163 21934 ft 259 kts 286°
2026-04-24 00:03 38.27318 -27.53360 21938 ft 259 kts 286°
2026-04-24 00:03 38.27822 -27.55540 21939 ft 259 kts 286°
2026-04-24 00:03 38.28336 -27.57756 21940 ft 259 kts 286°
2026-04-24 00:03 38.28846 -27.59963 21939 ft 260 kts 286°
2026-04-24 00:04 38.29355 -27.62166 21936 ft 260 kts 286°
2026-04-24 00:04 38.29867 -27.64384 21936 ft 260 kts 286°
2026-04-24 00:04 38.30380 -27.66606 21938 ft 260 kts 285°
2026-04-24 00:04 38.30894 -27.68838 21942 ft 261 kts 285°
2026-04-24 00:05 38.31404 -27.71055 21942 ft 261 kts 285°
2026-04-24 00:05 38.31923 -27.73310 21940 ft 262 kts 285°
2026-04-24 00:05 38.32431 -27.75526 21942 ft 262 kts 285°
2026-04-24 00:05 38.32948 -27.77777 21938 ft 263 kts 285°
2026-04-24 00:06 38.33454 -27.79987 21938 ft 263 kts 285°
2026-04-24 00:06 38.33970 -27.82241 21938 ft 263 kts 285°
2026-04-24 00:06 38.34476 -27.84451 21939 ft 262 kts 285°
2026-04-24 00:06 38.34987 -27.86688 21934 ft 262 kts 285°
2026-04-24 00:07 38.35494 -27.88906 21934 ft 262 kts 285°
2026-04-24 00:07 38.36004 -27.91144 21933 ft 262 kts 285°
2026-04-24 00:07 38.36510 -27.93366 21932 ft 263 kts 285°
2026-04-24 00:07 38.37017 -27.95595 21934 ft 263 kts 285°
2026-04-24 00:08 38.37528 -27.97840 21933 ft 263 kts 285°
2026-04-24 00:08 38.38034 -28.00066 21934 ft 264 kts 285°
2026-04-24 00:08 38.38549 -28.02336 21923 ft 264 kts 285°
2026-04-24 00:08 38.39055 -28.04564 21928 ft 264 kts 285°
2026-04-24 00:09 38.39565 -28.06818 21926 ft 264 kts 285°
2026-04-24 00:09 38.40080 -28.09093 21934 ft 265 kts 285°
2026-04-24 00:09 38.40584 -28.11323 21932 ft 265 kts 285°
2026-04-24 00:09 38.41093 -28.13581 21930 ft 265 kts 284°
2026-04-24 00:10 38.41605 -28.15850 21931 ft 265 kts 284°
2026-04-24 00:10 38.42112 -28.18108 21930 ft 265 kts 284°
2026-04-24 00:10 38.42616 -28.20350 21926 ft 265 kts 284°
2026-04-24 00:10 38.43122 -28.22604 21925 ft 265 kts 285°
2026-04-24 00:11 38.43630 -28.24865 21924 ft 265 kts 285°
2026-04-24 00:11 38.44137 -28.27130 21928 ft 265 kts 285°
2026-04-24 00:11 38.44638 -28.29365 21930 ft 264 kts 285°
2026-04-24 00:11 38.45147 -28.31644 21930 ft 264 kts 284°
2026-04-24 00:12 38.45648 -28.33885 21930 ft 264 kts 284°
2026-04-24 00:12 38.46155 -28.36155 21925 ft 264 kts 285°
2026-04-24 00:12 38.46656 -28.38400 21922 ft 264 kts 285°
2026-04-24 00:12 38.47155 -28.40642 21926 ft 264 kts 285°
2026-04-24 00:13 38.47657 -28.42897 21922 ft 264 kts 284°
2026-04-24 00:13 38.48156 -28.45141 21920 ft 265 kts 285°
2026-04-24 00:13 38.48661 -28.47417 21917 ft 264 kts 285°
2026-04-24 00:13 38.49163 -28.49676 21919 ft 264 kts 284°
2026-04-24 00:14 38.49664 -28.51939 21927 ft 264 kts 284°
2026-04-24 00:14 38.50167 -28.54212 21919 ft 264 kts 284°
2026-04-24 00:14 38.50663 -28.56452 21918 ft 264 kts 284°
2026-04-24 00:14 38.51165 -28.58725 21922 ft 264 kts 284°
2026-04-24 00:15 38.51657 -28.60953 21918 ft 264 kts 284°
2026-04-24 00:15 38.52287 -28.63140 21912 ft 266 kts 294°
2026-04-24 00:15 38.53191 -28.65201 21913 ft 266 kts 296°
2026-04-24 00:15 38.54123 -28.67243 21911 ft 267 kts 296°
2026-04-24 00:16 38.55069 -28.69322 21909 ft 267 kts 296°
2026-04-24 00:16 38.55990 -28.71352 21911 ft 267 kts 296°
2026-04-24 00:16 38.56924 -28.73417 21913 ft 267 kts 296°
2026-04-24 00:16 38.57852 -28.75472 21914 ft 268 kts 296°
2026-04-24 00:17 38.58786 -28.77546 21909 ft 268 kts 296°
2026-04-24 00:17 38.59727 -28.79641 21907 ft 268 kts 296°
2026-04-24 00:17 38.60658 -28.81714 21906 ft 268 kts 296°
2026-04-24 00:17 38.61581 -28.83773 21904 ft 268 kts 296°
2026-04-24 00:18 38.62517 -28.85864 21907 ft 268 kts 296°
2026-04-24 00:18 38.63438 -28.87920 21906 ft 268 kts 296°
2026-04-24 00:18 38.64368 -28.90002 21901 ft 268 kts 296°
2026-04-24 00:18 38.65293 -28.92073 21900 ft 268 kts 296°
2026-04-24 00:19 38.66219 -28.94146 21902 ft 268 kts 296°
2026-04-24 00:19 38.67140 -28.96211 21900 ft 269 kts 296°
2026-04-24 00:19 38.68074 -28.98307 21900 ft 269 kts 296°
2026-04-24 00:19 38.68999 -29.00383 21903 ft 269 kts 296°
2026-04-24 00:20 38.69922 -29.02455 21901 ft 269 kts 296°
2026-04-24 00:20 38.70840 -29.04520 21898 ft 269 kts 296°
2026-04-24 00:20 38.71761 -29.06594 21897 ft 269 kts 296°
2026-04-24 00:20 38.72693 -29.08692 21901 ft 269 kts 296°
2026-04-24 00:21 38.73615 -29.10768 21904 ft 269 kts 296°
2026-04-24 00:21 38.74549 -29.12874 21898 ft 269 kts 296°
2026-04-24 00:21 38.75473 -29.14959 21896 ft 269 kts 296°
2026-04-24 00:21 38.76397 -29.17046 21890 ft 269 kts 296°
2026-04-24 00:22 38.77316 -29.19121 21895 ft 269 kts 296°
2026-04-24 00:22 38.78241 -29.21212 21896 ft 268 kts 296°
2026-04-24 00:22 38.79155 -29.23280 21896 ft 268 kts 296°
2026-04-24 00:22 38.80082 -29.25376 21892 ft 269 kts 296°
2026-04-24 00:23 38.81003 -29.27463 21892 ft 268 kts 296°
2026-04-24 00:23 38.81919 -29.29538 21896 ft 267 kts 296°
2026-04-24 00:23 38.82821 -29.31584 21897 ft 266 kts 296°
2026-04-24 00:23 38.83734 -29.33657 21898 ft 266 kts 296°
2026-04-24 00:24 38.84645 -29.35726 21899 ft 266 kts 296°
2026-04-24 00:24 38.85556 -29.37794 21899 ft 267 kts 296°
2026-04-24 00:24 38.86462 -29.39856 21897 ft 266 kts 295°
2026-04-24 00:24 38.87371 -29.41922 21901 ft 266 kts 296°
2026-04-24 00:25 38.88291 -29.44017 21902 ft 266 kts 296°
2026-04-24 00:25 38.89185 -29.46052 21900 ft 266 kts 296°
2026-04-24 00:25 38.90100 -29.48142 21901 ft 266 kts 295°
2026-04-24 00:25 38.91005 -29.50208 21902 ft 267 kts 296°
2026-04-24 00:26 38.91917 -29.52288 21898 ft 267 kts 296°
2026-04-24 00:26 38.92821 -29.54353 21898 ft 267 kts 295°
2026-04-24 00:26 38.93735 -29.56444 21899 ft 268 kts 296°
2026-04-24 00:26 38.94650 -29.58535 21896 ft 268 kts 296°
2026-04-24 00:27 38.95549 -29.60594 21889 ft 268 kts 296°
2026-04-24 00:27 38.96467 -29.62697 21888 ft 268 kts 296°
2026-04-24 00:27 38.97373 -29.64774 21890 ft 268 kts 295°
2026-04-24 00:27 38.98283 -29.66861 21895 ft 268 kts 295°
2026-04-24 00:28 38.99189 -29.68941 21897 ft 268 kts 295°
2026-04-24 00:28 39.00108 -29.71050 21889 ft 269 kts 295°
2026-04-24 00:28 39.01009 -29.73121 21890 ft 269 kts 295°
2026-04-24 00:28 39.01928 -29.75234 21893 ft 269 kts 295°
2026-04-24 00:29 39.02832 -29.77314 21890 ft 269 kts 295°
2026-04-24 00:29 39.03755 -29.79440 21893 ft 269 kts 295°
2026-04-24 00:29 39.04664 -29.81533 21896 ft 270 kts 295°
2026-04-24 00:29 39.05571 -29.83626 21902 ft 270 kts 295°
2026-04-24 00:30 39.06493 -29.85754 21902 ft 270 kts 295°
2026-04-24 00:30 39.07400 -29.87850 21897 ft 271 kts 295°
2026-04-24 00:30 39.08320 -29.89973 21888 ft 271 kts 295°
2026-04-24 00:30 39.09230 -29.92077 21833 ft 273 kts 295°
2026-04-24 00:31 39.10161 -29.94237 21601 ft 277 kts 295°
2026-04-24 00:31 39.11097 -29.96413 21380 ft 280 kts 295°
2026-04-24 00:31 39.12047 -29.98616 21207 ft 280 kts 295°
2026-04-24 00:31 39.12989 -30.00801 21035 ft 281 kts 295°
2026-04-24 00:32 39.13940 -30.03009 20862 ft 281 kts 295°
2026-04-24 00:32 39.14892 -30.05220 20689 ft 281 kts 295°
2026-04-24 00:32 39.15837 -30.07416 20521 ft 281 kts 295°
2026-04-24 00:32 39.16785 -30.09621 20351 ft 281 kts 295°
2026-04-24 00:33 39.17729 -30.11817 20182 ft 281 kts 295°
2026-04-24 00:33 39.18681 -30.14036 19831 ft 287 kts 295°
2026-04-24 00:33 39.19654 -30.16306 19348 ft 292 kts 296°
2026-04-24 00:33 39.20638 -30.18603 18883 ft 295 kts 296°
2026-04-24 00:34 39.21629 -30.20917 18416 ft 296 kts 296°
2026-04-24 00:34 39.22604 -30.23193 17962 ft 287 kts 295°
2026-04-24 00:34 39.23558 -30.25437 17519 ft 281 kts 294°
2026-04-24 00:34 39.24146 -30.27773 17102 ft 271 kts 277°
2026-04-24 00:35 39.24324 -30.30141 16692 ft 266 kts 274°
2026-04-24 00:35 39.24477 -30.32516 16281 ft 262 kts 274°
2026-04-24 00:35 39.24623 -30.34834 15879 ft 259 kts 274°
2026-04-24 00:35 39.24768 -30.37095 15485 ft 255 kts 274°
2026-04-24 00:36 39.24913 -30.39361 15142 ft 250 kts 274°
2026-04-24 00:36 39.25057 -30.41569 14824 ft 246 kts 274°
2026-04-24 00:36 39.25198 -30.43741 14475 ft 242 kts 274°
2026-04-24 00:36 39.25338 -30.45894 14114 ft 240 kts 274°
2026-04-24 00:37 39.25477 -30.48019 13753 ft 237 kts 274°
2026-04-24 00:37 39.25616 -30.50137 13394 ft 235 kts 273°
2026-04-24 00:37 39.25752 -30.52223 13035 ft 234 kts 273°
2026-04-24 00:37 39.25888 -30.54317 12675 ft 232 kts 273°
2026-04-24 00:38 39.26022 -30.56378 12316 ft 231 kts 273°
2026-04-24 00:38 39.26157 -30.58441 11959 ft 230 kts 273°
2026-04-24 00:38 39.26288 -30.60457 11612 ft 229 kts 272°
2026-04-24 00:38 39.26421 -30.62512 11255 ft 228 kts 272°
2026-04-24 00:39 39.26551 -30.64523 10911 ft 226 kts 272°
2026-04-24 00:39 39.26680 -30.66539 10560 ft 226 kts 272°
2026-04-24 00:39 39.26810 -30.68552 10211 ft 226 kts 271°
2026-04-24 00:39 39.26940 -30.70577 9864 ft 225 kts 271°
2026-04-24 00:40 39.27067 -30.72572 9518 ft 225 kts 272°
2026-04-24 00:40 39.27196 -30.74593 9165 ft 225 kts 272°
2026-04-24 00:40 39.27322 -30.76573 8821 ft 225 kts 272°
2026-04-24 00:40 39.27450 -30.78596 8468 ft 224 kts 272°
2026-04-24 00:41 39.27576 -30.80571 8122 ft 219 kts 272°
2026-04-24 00:41 39.27699 -30.82486 7787 ft 212 kts 273°
2026-04-24 00:41 39.27818 -30.84347 7462 ft 205 kts 273°
2026-04-24 00:41 39.27932 -30.86163 7148 ft 198 kts 274°
2026-04-24 00:42 39.28041 -30.87900 6850 ft 190 kts 274°
2026-04-24 00:42 39.28145 -30.89573 6569 ft 189 kts 273°
2026-04-24 00:42 39.28249 -30.91276 6280 ft 188 kts 273°
2026-04-24 00:42 39.28350 -30.92943 6002 ft 186 kts 274°
2026-04-24 00:43 39.28454 -30.94622 5698 ft 186 kts 273°
2026-04-24 00:43 39.28551 -30.96279 5407 ft 185 kts 271°
2026-04-24 00:43 39.28655 -30.97916 5136 ft 185 kts 272°
2026-04-24 00:43 39.28755 -30.99571 4858 ft 184 kts 272°
2026-04-24 00:44 39.28854 -31.01221 4577 ft 185 kts 272°
2026-04-24 00:44 39.28959 -31.02869 4287 ft 185 kts 272°
2026-04-24 00:44 39.29060 -31.04544 3995 ft 186 kts 272°
2026-04-24 00:44 39.29163 -31.06207 3695 ft 187 kts 272°
2026-04-24 00:45 39.29442 -31.07853 3297 ft 198 kts 296°
2026-04-24 00:45 39.30547 -31.08923 2992 ft 208 kts 340°
2026-04-24 00:45 39.32004 -31.09178 2711 ft 214 kts 351°
2026-04-24 00:45 39.33449 -31.09451 2410 ft 206 kts 345°
2026-04-24 00:46 39.34837 -31.09835 2140 ft 198 kts 344°
2026-04-24 00:46 39.36161 -31.10181 1884 ft 192 kts 345°
2026-04-24 00:46 39.37432 -31.10527 1778 ft 180 kts 343°
2026-04-24 00:46 39.38598 -31.10912 1652 ft 169 kts 341°
2026-04-24 00:47 39.39737 -31.11308 1357 ft 167 kts 340°
2026-04-24 00:47 39.40813 -31.11741 1000 ft 158 kts 338°
2026-04-24 00:47 39.41823 -31.12091 755 ft 143 kts 345°
2026-04-24 00:47 39.42773 -31.12296 555 ft 136 kts 348°
2026-04-24 00:48 39.43706 -31.12527 471 ft 139 kts 342°
2026-04-24 00:48 39.44654 -31.12872 211 ft 139 kts 341°
2026-04-24 00:48 39.45535 -31.13149 122 ft 111 kts 349°
2026-04-24 00:48 39.46017 -31.13271 112 ft 33 kts 347°
2026-04-24 00:49 39.46118 -31.13331 112 ft 13 kts 325°
2026-04-24 00:49 39.46073 -31.13282 112 ft 20 kts 171°
2026-04-24 00:49 39.45907 -31.13239 115 ft 25 kts 166°
2026-04-24 00:49 39.45813 -31.13194 115 ft 8 kts 112°
2026-04-24 00:50 39.45822 -31.13122 114 ft 6 kts 76°
2026-04-24 00:50 39.45834 -31.13090 113 ft 1 kts 49°
2026-04-24 00:50 39.45863 -31.13089 112 ft 2 kts 244°
2026-04-24 00:50 39.45858 -31.13094 112 ft 0 kts 207°